DL7GAI-7 Weather Reports


time (UTC)temp
C
wind
direction
speed
KPH
gust
KPH
rain 1hr
cm
rain 24hr
cm
rain mn
cm
humidity
%
barometer
mb
20200810110920 27 180 4.8 11.3 0.00 0.00 0.00 54 1013.2
20200810105429 25 180 6.4 11.3 0.00 0.00 0.00 56 1013.6
20200810104024 25 180 6.4 11.3 0.00 0.00 0.00 56 1013.6
20200810102753 25 90 6.4 11.3 0.00 0.00 0.00 54 1013.7
20200810101315 25 90 6.4 11.3 0.00 0.00 0.00 54 1013.7
20200810095852 25 45 3.2 8.0 0.00 0.00 0.00 56 1013.8
20200810094510 25 45 3.2 8.0 0.00 0.00 0.00 56 1013.8
20200810093125 22 180 3.2 8.0 0.00 0.00 0.00 63 1014.2
20200810091728 22 180 3.2 8.0 0.00 0.00 0.00 63 1014.2
20200810090454 22 225 3.2 9.7 0.00 0.00 0.00 65 1014.2
20200810085034 22 225 3.2 9.7 0.00 0.00 0.00 65 1014.2
20200810083716 22 225 3.2 9.7 0.00 0.00 0.00 65 1014.2
20200810082349 22 225 3.2 6.4 0.00 0.00 0.00 67 1014.3
20200810080918 22 225 3.2 6.4 0.00 0.00 0.00 67 1014.3
20200810075617 21 135 3.2 6.4 0.00 0.00 0.00 69 1014.5
20200810074315 21 135 3.2 6.4 0.00 0.00 0.00 69 1014.5
20200810072958 21 0 4.8 6.4 0.00 0.00 0.00 69 1014.6
20200810071558 21 0 4.8 6.4 0.00 0.00 0.00 69 1014.6
20200810070308 20 0 3.2 6.4 0.00 0.00 0.00 77 1014.7
20200810064941 20 0 3.2 6.4 0.00 0.00 0.00 77 1014.7
20200810063619 20 0 3.2 6.4 0.00 0.00 0.00 77 1014.7
20200810062220 18 45 1.6 3.2 0.00 0.00 0.00 85 1015.1
20200810060935 18 45 1.6 3.2 0.00 0.00 0.00 85 1015.1
20200810055519 17 0 3.2 6.4 0.00 0.00 0.00 88 1015.0
20200810054230 17 0 3.2 6.4 0.00 0.00 0.00 88 1015.0
20200810052931 17 270 1.6 4.8 0.00 0.00 0.00 90 1015.1
20200810051714 17 270 1.6 4.8 0.00 0.00 0.00 90 1015.1
20200810050358 17 0 3.2 6.4 0.00 0.00 0.00 88 1014.9
20200810045053 17 0 3.2 6.4 0.00 0.00 0.00 88 1014.9
20200810043823 17 0 3.2 6.4 0.00 0.00 0.00 88 1014.9
20200810042451 18 225 1.6 4.8 0.00 0.00 0.00 89 1014.7
20200810041138 18 225 1.6 4.8 0.00 0.00 0.00 89 1014.7
20200810035859 18 0 3.2 4.8 0.00 0.00 0.00 89 1014.8
20200810034535 18 0 3.2 4.8 0.00 0.00 0.00 89 1014.8
20200810033155 18 270 4.8 4.8 0.00 0.00 0.00 88 1014.8
20200810031756 18 270 4.8 4.8 0.00 0.00 0.00 88 1014.8
20200810030342 18 315 3.2 8.0 0.00 0.00 0.00 87 1014.9
20200810024905 18 315 3.2 8.0 0.00 0.00 0.00 87 1014.9
20200810023433 19 0 4.8 8.0 0.00 0.00 0.00 86 1014.7
20200810022111 19 0 4.8 8.0 0.00 0.00 0.00 86 1014.7
20200810020752 19 0 4.8 8.0 0.00 0.00 0.00 86 1014.7
20200810015424 20 270 6.4 8.0 0.00 0.00 0.00 79 1014.6
20200810014120 20 270 6.4 8.0 0.00 0.00 0.00 79 1014.6
20200810012705 20 0 3.2 6.4 0.00 0.00 0.00 80 1014.7
20200810011348 20 0 3.2 6.4 0.00 0.00 0.00 80 1014.7
20200810010020 20 0 3.2 6.4 0.00 0.00 0.00 80 1014.7
20200810004713 20 0 3.2 6.4 0.00 0.00 0.00 80 1014.7
20200810003401 20 225 3.2 6.4 0.00 0.00 0.00 74 1014.8
20200810001924 20 225 3.2 6.4 0.00 0.00 0.00 74 1014.8
20200810000547 21 0 6.4 6.4 0.00 0.00 0.00 67 1014.8
20200809235110 21 0 6.4 6.4 0.00 0.00 0.00 67 1014.8
20200809233740 21 0 6.4 6.4 0.00 0.00 0.00 67 1014.8
20200809232256 21 0 3.2 4.8 0.00 0.00 0.00 69 1014.8
20200809230859 21 0 3.2 4.8 0.00 0.00 0.00 69 1014.8
20200809225429 22 0 4.8 9.7 0.00 0.00 0.00 65 1014.7
20200809224144 22 0 4.8 9.7 0.00 0.00 0.00 65 1014.7
20200809222736 22 0 4.8 9.7 0.00 0.00 0.00 62 1014.6
20200809221442 22 0 4.8 9.7 0.00 0.00 0.00 62 1014.6
20200809220058 23 0 3.2 12.9 0.00 0.00 0.00 60 1014.6
20200809214635 23 0 3.2 12.9 0.00 0.00 0.00 60 1014.6
20200809213304 23 0 6.4 12.9 0.00 0.00 0.00 57 1014.3
20200809211913 23 0 6.4 12.9 0.00 0.00 0.00 57 1014.3
20200809210530 24 0 9.7 12.9 0.00 0.00 0.00 57 1014.4
20200809205324 24 0 9.7 12.9 0.00 0.00 0.00 57 1014.4
20200809204003 24 0 9.7 12.9 0.00 0.00 0.00 57 1014.4
20200809202657 25 0 8.0 9.7 0.00 0.00 0.00 58 1014.1
20200809201337 25 0 8.0 9.7 0.00 0.00 0.00 58 1014.1
20200809200026 25 45 3.2 6.4 0.00 0.00 0.00 58 1013.7
20200809194645 25 45 3.2 6.4 0.00 0.00 0.00 58 1013.7
20200809193242 27 0 3.2 6.4 0.00 0.00 0.00 52 1013.4
20200809191829 27 0 3.2 6.4 0.00 0.00 0.00 52 1013.4
20200809190517 29 0 3.2 4.8 0.00 0.00 0.00 47 1013.1
20200809185049 29 0 3.2 4.8 0.00 0.00 0.00 47 1013.1
20200809183715 29 0 3.2 4.8 0.00 0.00 0.00 47 1013.1
20200809182453 31 0 3.2 4.8 0.00 0.00 0.00 37 1012.9
20200809181104 31 0 3.2 4.8 0.00 0.00 0.00 37 1012.9
20200809175613 31 180 3.2 11.3 0.00 0.00 0.00 37 1013.0
20200809174314 31 180 3.2 11.3 0.00 0.00 0.00 37 1013.0
20200809173049 31 90 3.2 11.3 0.00 0.00 0.00 38 1013.4
20200809171654 31 90 3.2 11.3 0.00 0.00 0.00 38 1013.4
20200809170304 30 180 6.4 14.5 0.00 0.00 0.00 40 1013.6
20200809164922 30 180 6.4 14.5 0.00 0.00 0.00 40 1013.6
20200809163705 30 180 6.4 14.5 0.00 0.00 0.00 40 1013.6
20200809162227 31 180 8.0 14.5 0.00 0.00 0.00 39 1013.9
20200809160810 31 180 8.0 14.5 0.00 0.00 0.00 39 1013.9
20200809155438 31 180 6.4 14.5 0.00 0.00 0.00 35 1014.0
20200809154022 31 180 6.4 14.5 0.00 0.00 0.00 35 1014.0
20200809152626 31 135 6.4 12.9 0.00 0.00 0.00 37 1014.2
20200809151217 31 135 6.4 12.9 0.00 0.00 0.00 37 1014.2
20200809145930 30 180 9.7 14.5 0.00 0.00 0.00 39 1014.8
20200809144606 30 180 9.7 14.5 0.00 0.00 0.00 39 1014.8
20200809143239 30 180 6.4 14.5 0.00 0.00 0.00 42 1015.0
20200809141928 30 180 6.4 14.5 0.00 0.00 0.00 42 1015.0
20200809140457 30 180 6.4 12.9 0.00 0.00 0.00 43 1015.3
20200809135119 30 180 6.4 12.9 0.00 0.00 0.00 43 1015.3
20200809133903 30 180 6.4 12.9 0.00 0.00 0.00 43 1015.3
20200809132422 28 180 8.0 12.9 0.00 0.00 0.00 42 1015.8
20200809131131 28 180 8.0 12.9 0.00 0.00 0.00 42 1015.8
20200809125638 28 180 6.4 14.5 0.00 0.00 0.00 46 1016.0
20200809124300 28 180 6.4 14.5 0.00 0.00 0.00 46 1016.0
20200809123034 27 180 6.4 12.9 0.00 0.00 0.00 56 1016.2
20200809121631 27 180 6.4 12.9 0.00 0.00 0.00 56 1016.2
20200809120216 26 180 8.0 11.3 0.00 0.00 0.00 59 1016.8
20200809114859 26 180 8.0 11.3 0.00 0.00 0.00 59 1016.8
20200809113517 25 180 6.4 11.3 0.00 0.00 0.00 58 1017.2
20200809112118 25 180 6.4 11.3 0.00 0.00 0.00 58 1017.2